FW3944 Weather Reports


time (UTC)temp
F
wind
direction
speed
knots
gust
knots
rain 1hr
in
rain 24hr
in
rain mn
in
humidity
%
barometer
mb
20260508163058 59 240 6.1 10.4 0.00 1.04 0.00 69 1000.8
20260508161556 60 257 2.6 7.0 0.00 1.04 0.00 66 1000.7
20260508160056 58 219 1.7 7.8 0.00 1.04 0.00 70 1000.8
20260508154556 59 158 3.5 8.7 0.00 1.04 0.00 71 1000.8
20260508153102 59 180 3.5 7.8 0.00 1.04 0.00 72 1000.7
20260508151555 59 115 0.9 6.1 0.00 1.04 0.00 67 1000.8
20260508150106 59 114 0.9 6.1 0.00 1.04 0.00 66 1000.7
20260508144600 59 115 1.7 7.8 0.00 1.04 0.00 65 1000.9
20260508143059 59 0 0.9 6.1 0.00 1.04 0.00 71 1001.1
20260508141600 59 144 3.5 7.8 0.00 1.04 0.00 72 1001.3
20260508140056 58 107 2.6 7.0 0.00 1.04 0.00 70 1001.4
20260508134613 58 112 2.6 7.0 0.00 1.04 0.00 72 1001.7
20260508133059 57 109 1.7 6.1 0.00 1.04 0.00 73 1001.9
20260508131555 56 0 2.6 7.0 0.00 1.04 0.00 71 1001.8
20260508130100 55 110 1.7 5.2 0.00 1.04 0.00 80 1001.7
20260508124557 55 78 1.7 4.3 0.00 1.04 0.00 80 1001.6
20260508123107 53 105 1.7 6.1 0.00 1.04 0.00 87 1001.6
20260508121559 52 98 0.9 5.2 0.00 1.04 0.00 88 1001.5
20260508120111 51 0 0.9 3.5 0.00 1.04 0.00 90 1001.9
20260508114609 51 0 0.0 2.6 0.00 1.05 0.00 96 1002.1
20260508113122 49 0 0.0 3.5 0.00 1.05 0.00 100 1002.4
20260508111601 48 0 0.0 3.5 0.00 1.05 0.00 100 1002.1
20260508110055 46 94 0.9 2.6 0.00 1.05 0.00 100 1002.3
20260508104607 44 91 0.0 1.7 0.00 1.08 0.00 100 1002.5
20260508103058 42 348 0.0 0.9 0.00 1.08 0.00 100 1002.5
20260508101558 42 66 0.0 1.7 0.00 1.08 0.00 100 1002.4
20260508100054 41 48 0.0 0.9 0.00 1.08 0.00 100 1002.5
20260508094612 41 0 0.0 1.7 0.00 1.08 0.00 100 1002.2
20260508093057 41 48 0.0 1.7 0.00 1.08 0.00 100 1002.0
20260508091554 41 48 0.0 1.7 0.00 1.08 0.00 100 1001.8
20260508090056 41 0 0.0 0.9 0.00 1.08 0.00 100 1001.9
20260508084556 41 0 0.0 1.7 0.00 1.08 0.00 100 1001.9
20260508083054 42 0 0.0 0.9 0.00 1.08 0.00 100 1001.8
20260508081618 43 0 0.0 0.9 0.00 1.08 0.00 100 1001.4
20260508080056 43 0 0.0 1.7 0.00 1.08 0.00 100 1001.3
20260508074555 44 0 0.0 1.7 0.00 1.08 0.00 100 1001.2
20260508073103 44 48 0.0 1.7 0.00 1.08 0.00 100 1001.4
20260508071606 44 48 0.0 0.9 0.00 1.08 0.00 100 1001.4
20260508070057 45 0 0.9 2.6 0.00 1.08 0.00 100 1001.4
20260508064558 45 0 0.0 1.7 0.00 1.08 0.00 100 1001.7
20260508063105 45 0 0.0 1.7 0.00 1.08 0.00 100 1001.6
20260508061559 46 0 0.0 1.7 0.00 1.08 0.00 100 1001.6
20260508054556 46 355 0.0 3.5 0.00 1.08 0.00 100 1001.6
20260508053059 46 355 0.0 2.6 0.00 1.08 0.00 100 1001.5
20260508051557 46 0 0.0 2.6 0.00 1.08 0.00 100 1001.5
20260508044601 46 0 0.0 0.0 0.00 1.08 0.00 100 1001.4
20260508043101 46 0 0.0 0.0 0.00 1.08 0.00 100 1001.4
20260508041558 47 0 0.0 0.0 0.00 1.08 0.00 100 1001.6
20260508040103 47 0 0.0 0.0 0.00 1.08 0.00 100 1001.6
20260508034559 47 0 0.0 0.0 0.00 1.08 0.00 100 1001.6
20260508033059 48 0 0.0 0.0 0.00 1.08 0.00 100 1002.0
20260508031558 48 0 0.0 0.0 0.00 1.08 0.00 100 1001.9
20260508030055 48 0 0.0 0.0 0.01 1.08 0.00 100 1002.1
20260508024558 49 0 0.0 0.0 0.01 1.08 1.08 100 1002.0
20260508023059 49 0 0.0 3.5 0.01 1.08 1.08 100 1002.1
20260508021558 49 0 0.0 0.0 0.01 1.08 1.08 100 1002.2
20260508020103 49 0 0.0 0.0 0.00 1.07 1.07 100 1002.1
20260508014559 49 0 0.0 1.7 0.00 1.07 1.07 100 1002.2
20260508013056 49 164 0.9 3.5 0.00 1.07 1.07 100 1002.1
20260508011559 49 0 0.0 1.7 0.00 1.07 1.07 100 1001.8
20260508010057 49 0 0.9 3.5 0.00 1.07 1.07 100 1001.6
20260508004603 49 0 0.0 1.7 0.00 1.07 1.07 100 1001.9
20260508003105 49 0 0.0 0.0 0.00 1.07 1.07 100 1002.2
20260508001555 49 0 0.0 1.7 0.00 1.07 1.07 100 1002.3
20260508000058 49 164 0.0 1.7 0.00 1.07 1.07 100 1002.3
20260507234558 49 0 0.0 0.9 0.00 1.07 1.07 100 1002.4
20260507233056 49 0 0.0 3.5 0.00 1.07 1.07 100 1002.3
20260507231558 49 165 0.9 1.7 0.00 1.07 1.07 100 1002.2
20260507230101 49 0 0.0 1.7 0.00 1.07 1.07 100 1002.1
20260507224600 49 0 0.0 4.3 0.00 1.07 1.07 100 1002.2
20260507223056 50 0 0.0 3.5 0.00 1.07 1.07 100 1002.1
20260507221600 50 164 0.9 4.3 0.00 1.07 1.07 100 1002.4
20260507220056 50 0 1.7 4.3 0.00 1.07 1.07 100 1002.4
20260507214605 50 0 0.9 4.3 0.01 1.07 1.07 100 1002.4
20260507213057 50 164 2.6 4.3 0.01 1.07 1.07 100 1002.8
20260507211605 50 0 0.0 1.7 0.02 1.07 1.07 100 1002.4
20260507204557 50 249 2.6 6.1 0.07 1.05 1.05 100 1002.5
20260507203106 50 169 2.6 5.2 0.12 1.05 1.05 100 1002.5
20260507201612 50 167 1.7 6.1 0.20 1.04 1.04 100 1002.4
20260507200109 50 0 0.9 5.2 0.25 1.03 1.03 100 1003.0
20260507194557 50 0 0.9 6.1 0.28 0.99 0.99 100 1002.8
20260507193059 50 158 0.0 4.3 0.33 0.94 0.94 100 1003.7
20260507191600 50 0 0.0 0.0 0.34 0.85 0.85 100 1004.6
20260507190104 50 0 0.0 0.9 0.37 0.78 0.78 100 1004.7
20260507184600 49 0 0.0 0.9 0.45 0.70 0.70 100 1004.6
20260507183058 49 164 0.0 3.5 0.47 0.61 0.61 100 1004.8
20260507181601 49 184 1.7 6.1 0.41 0.51 0.51 100 1005.1
20260507180055 49 194 0.0 7.0 0.35 0.41 0.41 100 1005.3
20260507174558 49 259 2.6 10.4 0.20 0.24 0.24 100 1005.4
20260507173103 49 169 3.5 12.2 0.10 0.14 0.14 100 1004.8
20260507171600 49 281 4.3 13.9 0.06 0.10 0.10 100 1004.8
20260507170104 49 230 3.5 9.6 0.03 0.06 0.06 100 1005.1
20260507164601 49 152 2.6 11.3 0.01 0.04 0.04 100 1005.4